Погода в Оржеве

Украина / Ровненская область     50°45′03″N   26°07′06″E
темп.,
°C
ветер,
м/с
пор.,
м/с
влажн.,
%
обл.,
%
осадки,
мм/ч
давл.,
гПа
погр.,
м
27 ноября, сб
сб2723:00+6юв61384100 0.2 995944
02:00+7ю71285100 1.8 992671
05:00+6ююз41087100 0.3 991499
08:00+6юз61281100 0.6 992780
11:00+4зюз8158594 0.1 995892
14:00+6зюз7126615 0.1 9971030
17:00+3зюз48768 0.0 999264
20:00+2зюз238417 0.0 100148
28 ноября, вс
вс2823:00+1юз22895 0.0 100223
02:00+2ю228740 0.0 100225
05:00+2ю3486100 0.0 100161
08:00+5ю31091100 0.0 1002255
11:00+7ююв3888100 0.0 1001275
14:00+6юв4791100 0.6 1001254
17:00+5юв369398 0.8 1000195
20:00+5юв359296 0.8 999157
29 ноября, пн
пн2923:00+4юв3592100 0.0 99786
02:00+4юв4889100 0.0 995141
05:00+4юв4991100 0.0 992176
08:00+5юв3896100 0.2 990222
11:00+7ю4889100 0.1 988405
14:00+2зюз81495100 0.9 990738
17:00+2з101477100 0.0 991977
20:00+2зюз91680100 0.0 9921293
30 ноября, вт
вт3023:00+1зюз111783100 0.1 9931400
02:00+1зюз111886100 0.1 9931380
05:00+1зюз12207994 0.1 9941138
08:000з122095100 0.7 9951305
11:00+1зсз132085100 1.0 9981404
14:00+1зсз101578100 1.3 10011090
17:00−1з8147779 0.0 1003837
20:00−2зюз714857 0.0 1003686
1 декабря, ср
ср123:00−1юз616827 0.0 1001736
02:00−1юз81688100 0.1 999985
05:000зюз81590100 0.7 998828
08:000зюз71398100 1.8 999908
11:00+1з8149794 0.4 1001852
14:00+1з81497100 0.7 1003760
17:00+1з6129596 0.2 1004661
20:00−1юз369199 0.2 1004131